AirNav   Everest Fuels
 
 1368 users online  

50PA Pegasus Air Park
Stroudsburg, Pennsylvania, USA

GOING TO STROUDSBURG?


FAA INFORMATION EFFECTIVE 02 JANUARY 2020

Location

FAA Identifier: 50PA
Lat/Long: 40-56-00.3340N 075-20-58.6590W
40-56.005567N 075-20.977650W
40.9334261,-75.3496275
(estimated)
Elevation: 620 ft. / 189 m (estimated)
Variation: 12W (1985)
From city: 9 miles SW of STROUDSBURG, PA
Time zone: UTC -5 (UTC -4 during Daylight Saving Time)
Zip code: 18354

Airport Operations

Airport use: Private use. Permission required prior to landing
Activation date: 01/1974
Control tower: no
ARTCC: NEW YORK CENTER
FSS: WILLIAMSPORT FLIGHT SERVICE STATION
Attendance: DAYLIGHT HOURS
Wind indicator: yes
Segmented circle: no

Airport Communications

UNICOM: 122.7
WX ASOS at MPO (12 nm N): 120.275 (570-839-1584)
WX ASOS at ABE (17 nm S): 126.975 (610-266-3579)

Nearby radio navigation aids

VOR radial/distance  VOR name  Freq  Var
FJCr031/13.3ALLENTOWN VORTAC117.5010W
STWr271/22.1STILLWATER VOR/DME109.6011W
BWZr300/25.3BROADWAY VOR/DME114.2011W
LVZr153/25.5WILKES-BARRE VORTAC111.6010W
ETXr045/26.0EAST TEXAS VOR/DME110.2009W
SBJr317/34.7SOLBERG VOR/DME112.9010W
SAXr269/37.6SPARTA VORTAC115.7011W

Airport Services

Airframe service: MINOR
Powerplant service: MINOR

Runway Information

Runway E/W

Dimensions: 2700 x 100 ft. / 823 x 30 m
Surface: turf
RUNWAY E  RUNWAY W
Traffic pattern: leftleft
Obstructions: 82 ft. tree, 328 ft. from runway, 77 ft. left of centerline, 4:1 slope to clear89 ft. trees, 150 ft. from runway, 1:1 slope to clear

Airport Ownership and Management from official FAA records

Ownership: Privately-owned
Owner: PEGASUS GROUP, INC.
BOX 427
PORTLAND, PA 18351
Phone 570-897-6172
Manager: FRED DUCKLOE
1486 NORTH 9TH ST
STROUDSBURG, PA 18360
Phone 570-897-6172

Airport Operational Statistics

Aircraft based on the field: 11
Single engine airplanes: 11
    

Additional Remarks

FOR CD CTC ALLENTOWN APCH AT 800-728-6322.
RWY 9 1294 FT DTHR, RWY 27 1622 FT DTHR.

Instrument Procedures

There are no published instrument procedures at 50PA.

Some nearby airports with instrument procedures:

N53 - Stroudsburg-Pocono Airport (11 nm NE)
KMPO - Pocono Mountains Municipal Airport (12 nm N)
N43 - Braden Airpark (12 nm SE)
1N7 - Blairstown Airport (16 nm E)
KABE - Lehigh Valley International Airport (17 nm S)
 
Loc | Ops | Rwys | IFR | FBO | Links
Com | Nav | Svcs | Stats | Notes
Area around 50PA (Pegasus Air Park)
 
Road maps at: MapQuest Bing Google
 
Aerial photo
WARNING: Photo may not be current or correct
Aerial photo of 50PA (Pegasus Air Park)
Do you have a better or more recent aerial photo of Pegasus Air Park that you would like to share? If so, please send us your photo.

 
Sectional chart

 
Airport distance calculator
Flying to Pegasus Air Park? Find the distance to fly.

From to 50PA

Sunrise and sunset
Times for 25-Jan-2020
 Local
(UTC-5)
 Zulu
(UTC)
Morning civil twilight06:5011:50
Sunrise07:1912:19
Sunset17:0922:09
Evening civil twilight17:3822:38

Current date and time
Zulu (UTC)  26-Jan-2020 00:43:59
Local (UTC-5)  25-Jan-2020 19:43:59
 
METAR
KMPO 
12nm N 
252353Z AUTO 28013KT 9SM OVC004 02/02 A2974 RMK AO2 SLP087 60019 T00220017 10033 20000 56003 $
KABE 
18nm S 
252351Z 25007KT 10SM FEW050 06/03 A2981 RMK AO2 SLP096 60013 T00560028 10072 20056 53006
KXLL 
23nm S 
260015Z AUTO 25004KT 10SM BKN050 05/04 A2984 RMK AO2
TAF
KABE 
18nm S 
260030Z 2601/2624 28006KT P6SM SCT040 BKN080 FM261600 27009G18KT P6SM BKN040 FM262100 26008KT P6SM BKN035
NOTAMs
Click for the latest NOTAMs
NOTAMs are issued by the DoD/FAA and will open in a separate window not controlled by AirNav.

 

 
 

Would you like to see your business listed on this page?

 If your business provides an interesting product or service to pilots, flight crews, aircraft, or users of the Pegasus Air Park, you should consider listing it here.  To start the listing process, click on the button below
 
Add a business
 

Other Pages about Pegasus Air Park

Update a link
 
Copyright © AirNav, LLC. All rights reserved. Privacy Policy  Contact